Regional Weather Roundup
Issued by NWS

Home | Current Version | Previous Version | Graphics & Text | Print | Product List | Glossary On
Versions: 1 2 3 4 5 6 7 8 9 10 11 12 13 14 15 16 17 18 19 20 21 22 23 24 25 26 27 28 29 30 31 32 33 34 35 36 37 38 39 40 41 42 43 44 45 46 47 48 49 50
000
ASUS45 KCYS 271110
RWRWY

WYOMING REGIONAL WEATHER ROUNDUP
NATIONAL WEATHER SERVICE CHEYENNE WY
400 AM MST THU NOV 27 2014

NOTE:  "FAIR" INDICATES FEW OR NO CLOUDS BELOW 12,000 FEET
WITH NO SIGNIFICANT WEATHER AND/OR OBSTRUCTIONS TO VISIBILITY.

WYZ001-271200-
YELLOWSTONE NATIONAL PARK

CITY           SKY/WX    TMP DP  RH WIND       PRES   REMARKS
LK YELLOWSTONE   N/A     30  27  88 CALM      30.24F
W YELLOWSTONE  NOT AVBL

$$
WYZ002>013-054>058-071-098>099-271200-
NORTHERN WYOMING

CITY           SKY/WX    TMP DP  RH WIND       PRES   REMARKS
JACKSON        CLOUDY    37  28  70 SW9       30.25F WCI  31
CODY           MOCLDY    27  27 100 CALM      30.03F
GREYBULL       CLOUDY    22  20  92 CALM      30.11F
WORLAND        FOG       20  18  92 S5        30.11F VSB 1/4 WCI  13
SHERIDAN       CLOUDY    21  18  88 SE3       30.03F FOG
BUFFALO        MOCLDY    34  23  64 CALM      30.02F
GILLETTE       PTCLDY    24  19  81 S18       30.04F WCI  10
HULETT           N/A    N/A N/A N/A MISG        N/A
NEWCASTLE      FAIR      19  19 100 MISG      30.12F

$$
WYZ014>020-022>026-101>103-271200-
CENTRAL WYOMING

CITY           SKY/WX    TMP DP  RH WIND       PRES   REMARKS
BIG PINEY      PTCLDY   N/A N/A N/A E6        30.32F
PINEDALE       PTSUNNY   14  14 100 W6        30.34S WCI   5
DUBOIS         FAIR      36  23  60 NW14G21   30.18F WCI  27
LANDER         PTCLDY    33  24  69 SE3       30.14F
RIVERTON       PTCLDY    30  24  78 SW9       30.16F WCI  22
CASPER         CLOUDY    39  26  59 SW6       30.14F WCI  35
DOUGLAS        CLOUDY    21  18  88 E3        30.14F

$$
WYZ021-027>030-104>119-271200-
SOUTHERN WYOMING

CITY           SKY/WX    TMP DP  RH WIND       PRES   REMARKS
EVANSTON       PTCLDY    33  22  63 SW21      30.34F WCI  21
FORT BRIDGER   FAIR      39  20  45 SW18      30.35F WCI  30
ROCK SPRINGS   MOCLDY    35  19  52 W6        30.32F WCI  30
DIXON          FAIR      31  26  84 NW3       30.41F
RAWLINS        MOCLDY    40  21  46 W23G33    30.27F WCI  30
SARATOGA       FAIR      37  21  52 S6        30.32S WCI  33
LARAMIE        PTCLDY    38  19  46 SW24G37   30.22F WCI  27
CHEYENNE       PTCLDY    42  21  43 W15G24    30.19F
TORRINGTON     FOG       19  18  95 CALM      30.17F VSB 1/2
PINE BLUFFS    FAIR      23  21  93 S8        30.20F WCI  14

$$


USA.gov is the U.S. government's official web portal to all federal, state and local government web resources and services.